sat.trackr.live / text

‹ back to catalog

STARLINK-36767

NORAD 67814 · 2026-032T

PAYLOAD ACTIVE UNKNOWN

§ Identity

Operator
Country
US
Launch date
2026-02-15
Launch site
AFWTR
Launch vehicle
Mass (kg)
RCS (m²)

Purposes: comms

External: N2YO · Heavens-Above · Gunter

§ Orbital elements

Epoch: 2026-05-25T01:32:20.165856Z

Period
93.91 min
Inclination
97.2856°
Eccentricity
0.0001394
Mean motion
15.33452474 rev/d
Perigee alt
464.6 km
Apogee alt
466.5 km
Semi-major
6,843.7 km
B*
4.1054e-4
RAAN
333.1321°
Arg perigee
90.6835°
Mean anomaly
269.4567°
Rev number
1,666

§ Raw data

STARLINK-367671 67814U 26032T   26145.06412229  .00013205  00000+0  41054-3 0  99902 67814  97.2856 333.1321 0001394  90.6835 269.4567 15.33452474 16665

JSON: /api/v1/satellites/67814 · /tle

For live sub-satellite position, see the globe view (requires WebGL).

§ Visibility from observer

Set your observer location to see the next 7 days of passes ≥ 10°. The values pass through the URL so the page stays shareable.

No JS? Fill the form by hand. The geolocation button needs JavaScript.